Appleton, MN

4:46 AM CDT on July 24, 2017 (GMT -0500)
Appleton Municipal

Weather History for KAQP - December, 2012

Change the Weather History Date:

Thursday, December 6, 2012

  Actual Average Record
Temperature  
Mean Temperature 30 °F -  
Max Temperature 42 °F 29 °F 44 °F (1999)
Min Temperature 19 °F 14 °F -14 °F (2005)
Degree Days  
Heating Degree Days 34    
Moisture  
Dew Point 25 °F    
Average Humidity 66    
Maximum Humidity 93    
Minimum Humidity 49    
Precipitation  
Precipitation 0.00 in - - ()
Sea Level Pressure  
Sea Level Pressure 29.88 in    
Wind  
Wind Speed 9 mph (NW)    
Max Wind Speed 21 mph    
Max Gust Speed 26 mph    
Visibility 10 miles    
Events Rain    
Averages and records for this station are not official NWS values.
T = Trace of Precipitation, MM = Missing Value Source: NWS Daily Summary

Daily Weather History Graph

Daily Weather History Graph

Search for Another Location

Airport or City:

Trip Planner

Search our weather history database for the weather conditions in past years. The results will help you decide how hot, cold, wet, or windy it might be!

Date:

Astronomy

Dec. 06, 2012 Rise Set
Actual Time 7:48 AM CST 4:41 PM CST
Civil Twilight 7:15 AM CST 5:15 PM CST
Nautical Twilight 6:38 AM CST 5:52 PM CST
Astronomical Twilight 6:02 AM CST 6:28 PM CST
Moon No Moon Rise 12:25 PM CST (12/6)
Length of Visible Light 10h 00m
Length of Day
8h 52m
Waning Gibbous, 49% of the Moon is Illuminated
Dec 6
Waning Gibbous
Dec 13
New
Dec 19
First Quarter
Dec 28
Full
Jan 4
Last Quarter

Hourly Weather History & Observations

Time (CST) Temp. Windchill Dew Point Humidity Pressure Visibility Wind Dir Wind Speed Gust Speed Precip Events Conditions
12:13 AM 42.8 °F 38.6 °F 26.6 °F 53% 29.70 in 10.0 mi SE 6.9 mph - N/A   Clear
12:34 AM 42.8 °F 39.3 °F 26.6 °F 53% 29.69 in 10.0 mi SE 5.8 mph - N/A   Clear
12:54 AM 42.8 °F 39.3 °F 26.6 °F 53% 29.69 in 10.0 mi SE 5.8 mph - N/A   Clear
1:14 AM 42.8 °F 41.1 °F 26.6 °F 53% 29.69 in 10.0 mi SE 3.5 mph - N/A   Clear
1:34 AM 42.8 °F 40.1 °F 26.6 °F 53% 29.69 in 10.0 mi SSE 4.6 mph - N/A   Clear
1:53 AM 42.8 °F - 26.6 °F 53% 29.70 in 10.0 mi Calm Calm - N/A   Clear
2:13 AM 42.8 °F - 26.6 °F 53% 29.71 in 10.0 mi Calm Calm - N/A   Clear
2:33 AM 39.2 °F - 26.6 °F 61% 29.72 in 10.0 mi Calm Calm - N/A   Mostly Cloudy
2:54 AM 39.2 °F - 28.4 °F 65% 29.73 in 10.0 mi Calm Calm - N/A Rain Light Rain
3:14 AM 41.0 °F 37.1 °F 30.2 °F 65% 29.74 in 10.0 mi WSW 5.8 mph - N/A Rain Light Rain
3:33 AM 41.0 °F 35.8 °F 30.2 °F 65% 29.75 in 10.0 mi West 8.1 mph - N/A Rain Light Rain
3:53 AM 39.2 °F 34.2 °F 32.0 °F 75% 29.75 in 10.0 mi West 6.9 mph - N/A   Overcast
4:13 AM 39.2 °F 32.0 °F 30.2 °F 70% 29.76 in 10.0 mi WNW 11.5 mph - N/A   Mostly Cloudy
4:33 AM 41.0 °F 34.3 °F 30.2 °F 65% 29.77 in 10.0 mi WNW 11.5 mph - N/A   Scattered Clouds
4:54 AM 41.0 °F 34.3 °F 28.4 °F 61% 29.78 in 10.0 mi WNW 11.5 mph - N/A   Clear
5:14 AM 39.2 °F 33.0 °F 28.4 °F 65% 29.78 in 10.0 mi WNW 9.2 mph - N/A   Clear
5:33 AM 39.2 °F 32.0 °F 28.4 °F 65% 29.79 in 10.0 mi WNW 11.5 mph - N/A   Clear
5:53 AM 39.2 °F 30.5 °F 28.4 °F 65% 29.81 in 10.0 mi NW 16.1 mph 21.9 mph N/A   Clear
6:14 AM 39.2 °F 30.8 °F 28.4 °F 65% 29.82 in 10.0 mi NW 15.0 mph - N/A   Clear
6:33 AM 37.4 °F 29.3 °F 28.4 °F 70% 29.83 in 10.0 mi NW 12.7 mph - N/A   Clear
6:53 AM 35.6 °F 27.5 °F 28.4 °F 75% 29.84 in 10.0 mi WNW 11.5 mph - N/A   Clear
7:14 AM 37.4 °F 28.5 °F 28.4 °F 70% 29.84 in 10.0 mi WNW 15.0 mph 19.6 mph N/A   Clear
7:34 AM 35.6 °F 27.5 °F 28.4 °F 75% 29.84 in 10.0 mi WNW 11.5 mph - N/A   Clear
7:54 AM 35.6 °F 26.2 °F 28.4 °F 75% 29.85 in 10.0 mi WNW 15.0 mph - N/A   Clear
8:13 AM 37.4 °F 29.8 °F 28.4 °F 70% 29.85 in 10.0 mi WNW 11.5 mph - N/A   Clear
8:33 AM 35.6 °F 28.0 °F 28.4 °F 75% 29.86 in 10.0 mi WNW 10.4 mph - N/A   Clear
8:54 AM 35.6 °F 27.5 °F 30.2 °F 81% 29.86 in 10.0 mi WNW 11.5 mph - N/A   Clear
9:14 AM 39.2 °F 32.0 °F 30.2 °F 70% 29.87 in 10.0 mi WNW 11.5 mph 17.3 mph N/A   Clear
9:34 AM 39.2 °F 30.2 °F 30.2 °F 70% 29.88 in 10.0 mi NW 17.3 mph 24.2 mph N/A   Clear
9:54 AM 41.0 °F 31.6 °F 30.2 °F 65% 29.89 in 10.0 mi NW 20.7 mph 26.5 mph N/A   Clear
10:13 AM 41.0 °F 32.2 °F 30.2 °F 65% 29.89 in 10.0 mi NNW 18.4 mph 24.2 mph N/A   Clear
10:33 AM 41.0 °F 32.8 °F 28.4 °F 61% 29.90 in 10.0 mi NNW 16.1 mph 24.2 mph N/A   Clear
10:54 AM 39.2 °F 29.3 °F 28.4 °F 65% 29.90 in 10.0 mi NNW 20.7 mph - N/A   Clear
11:14 AM 39.2 °F 29.8 °F 28.4 °F 65% 29.89 in 10.0 mi NNW 18.4 mph 24.2 mph N/A   Clear
11:34 AM 41.0 °F 32.5 °F 28.4 °F 61% 29.90 in 10.0 mi NW 17.3 mph 21.9 mph N/A   Clear
11:54 AM 41.0 °F 33.1 °F 26.6 °F 57% 29.90 in 10.0 mi NNW 15.0 mph 20.7 mph N/A   Clear
12:13 PM 41.0 °F 32.5 °F 26.6 °F 57% 29.90 in 10.0 mi NW 17.3 mph - N/A   Clear
12:34 PM 42.8 °F 34.0 °F 26.6 °F 53% 29.90 in 10.0 mi NW 20.7 mph 26.5 mph N/A   Clear
12:54 PM 42.8 °F 34.5 °F 26.6 °F 53% 29.90 in 10.0 mi NW 18.4 mph 24.2 mph N/A   Clear
1:14 PM 42.8 °F 35.1 °F 26.6 °F 53% 29.91 in 10.0 mi NW 16.1 mph 23.0 mph N/A   Clear
1:34 PM 39.2 °F 30.5 °F 26.6 °F 61% 29.91 in 10.0 mi NW 16.1 mph - N/A   Clear
1:54 PM 41.0 °F 32.5 °F 26.6 °F 57% 29.92 in 10.0 mi NW 17.3 mph - N/A   Clear
2:14 PM 41.0 °F 32.5 °F 24.8 °F 53% 29.92 in 10.0 mi NW 17.3 mph 21.9 mph N/A   Clear
2:34 PM 39.2 °F 30.5 °F 24.8 °F 56% 29.92 in 10.0 mi WNW 16.1 mph 20.7 mph N/A   Clear
2:54 PM 41.0 °F 32.5 °F 26.6 °F 57% 29.93 in 10.0 mi NW 17.3 mph 20.7 mph N/A   Clear
3:14 PM 39.2 °F 30.8 °F 26.6 °F 61% 29.93 in 10.0 mi NW 15.0 mph 19.6 mph N/A   Clear
3:34 PM 39.2 °F 31.6 °F 24.8 °F 56% 29.94 in 10.0 mi NW 12.7 mph - N/A   Clear
3:54 PM 39.2 °F 30.2 °F 23.0 °F 52% 29.94 in 10.0 mi NW 17.3 mph - N/A   Clear
4:14 PM 39.2 °F 30.5 °F 21.2 °F 49% 29.96 in 10.0 mi NW 16.1 mph 19.6 mph N/A   Clear
4:34 PM 35.6 °F 27.1 °F 21.2 °F 56% 29.97 in 10.0 mi NW 12.7 mph - N/A   Clear
4:54 PM 33.8 °F 25.8 °F 19.4 °F 56% 29.97 in 10.0 mi NW 10.4 mph - N/A   Clear
5:14 PM 30.2 °F 23.4 °F 19.4 °F 64% 29.98 in 10.0 mi NW 6.9 mph - N/A   Clear
5:34 PM 30.2 °F 24.3 °F 19.4 °F 64% 29.98 in 10.0 mi NW 5.8 mph - N/A   Clear
5:54 PM 28.4 °F 22.2 °F 19.4 °F 69% 29.98 in 10.0 mi NW 5.8 mph - N/A   Clear
6:13 PM 28.4 °F 24.6 °F 19.4 °F 69% 29.99 in 10.0 mi NNW 3.5 mph - N/A   Clear
6:33 PM 26.6 °F 22.6 °F 17.6 °F 69% 29.99 in 10.0 mi North 3.5 mph - N/A   Clear
6:54 PM 24.8 °F 17.9 °F 17.6 °F 74% 30.00 in 10.0 mi NNW 5.8 mph - N/A   Clear
7:14 PM 24.8 °F 19.1 °F 17.6 °F 74% 29.99 in 10.0 mi NW 4.6 mph - N/A   Clear
7:34 PM 26.6 °F 21.2 °F 19.4 °F 74% 30.00 in 10.0 mi NNW 4.6 mph - N/A   Clear
7:54 PM 24.8 °F 20.5 °F 17.6 °F 74% 30.00 in 10.0 mi NNW 3.5 mph - N/A   Clear
8:33 PM 21.2 °F 16.4 °F 15.8 °F 80% 30.01 in 10.0 mi WNW 3.5 mph - N/A   Clear
8:54 PM 23.0 °F 15.8 °F 17.6 °F 80% 30.02 in 10.0 mi WNW 5.8 mph - N/A   Clear
9:13 PM 19.4 °F 12.8 °F 15.8 °F 86% 30.01 in 10.0 mi WNW 4.6 mph - N/A   Clear
9:33 PM 23.0 °F 15.8 °F 17.6 °F 80% 30.01 in 10.0 mi NNW 5.8 mph - N/A   Clear
9:54 PM 19.4 °F - 17.6 °F 93% 30.01 in 10.0 mi Calm Calm - N/A   Clear
10:14 PM 21.2 °F - 17.6 °F 86% 30.01 in 10.0 mi Calm Calm - N/A   Clear
10:53 PM 21.2 °F - 17.6 °F 86% 30.01 in 10.0 mi Calm Calm - N/A   Clear
11:14 PM 21.2 °F 14.9 °F 17.6 °F 86% 30.01 in 10.0 mi WNW 4.6 mph - N/A   Clear
11:33 PM 23.0 °F 17.0 °F 19.4 °F 86% 30.01 in 10.0 mi West 4.6 mph - N/A   Clear
11:53 PM 24.8 °F 20.5 °F 19.4 °F 80% 30.02 in 10.0 mi West 3.5 mph - N/A   Clear